Location: B�rgermoos
(47.6500°N, 9.0667°E)
Time: 07:36:53
(UTC+00:00)

A-11 Canister half - Pass Details

Date: 03 August 2021
Orbit: 1526 x 1683 km, 47.3° (Epoch: 20 September)

Event Time Altitude Azimuth Distance (km) Brightness Sun altitude
Rises 07:24:18 0° 170° (S) 4,911 11.9 31.9°
Reaches altitude 10° 07:30:04 10° 144° (SE) 3,938 11.9 32.9°
Maximum altitude 07:33:51 13° 122° (ESE) 3,725 12.3 33.5°
Drops below altitude 10° 07:37:37 10° 99° (E) 3,941 12.6 34.1°
Sets 07:43:20 0° 74° (ENE) 4,918 12.4 35.1°
